RPC2929 RPVM-RPNS

Flight info

Callsign RPC2929
Flight time 0h 50m
Altitude 7500
Route VFR
Aircraft C208/L-SDFGR/C

Departure

Time 2026-04-24 12:36
Airport Mactan Cebu International Airport (RPVM)

Arrival

Time 2026-04-24 13:27
Airport Siargao Airport (RPNS)
Time Latitude Longitude Altitude Speed Heading
2026-04-24 12:21 10.30145 123.97662 37 ft 0 kts 46°
2026-04-24 12:31 10.30154 123.97656 37 ft 6 kts 293°
2026-04-24 12:31 10.30138 123.97588 36 ft 15 kts 226°
2026-04-24 12:31 10.30046 123.97496 36 ft 18 kts 223°
2026-04-24 12:31 10.29997 123.97441 36 ft 2 kts 16°
2026-04-24 12:32 10.29999 123.97443 36 ft 0 kts 46°
2026-04-24 12:34 10.30010 123.97454 36 ft 6 kts 45°
2026-04-24 12:34 10.30066 123.97448 35 ft 13 kts 320°
2026-04-24 12:34 10.30126 123.97385 34 ft 11 kts 314°
2026-04-24 12:35 10.30181 123.97367 34 ft 0 kts 45°
2026-04-24 12:35 10.30201 123.97388 35 ft 20 kts 45°
2026-04-24 12:35 10.30421 123.97609 35 ft 67 kts 44°
2026-04-24 12:36 10.30818 123.97998 127 ft 88 kts 44°
2026-04-24 12:36 10.31271 123.98466 288 ft 98 kts 44°
2026-04-24 12:36 10.31797 123.98997 432 ft 114 kts 45°
2026-04-24 12:36 10.32364 123.99563 693 ft 114 kts 46°
2026-04-24 12:37 10.32744 124.00311 813 ft 129 kts 78°
2026-04-24 12:37 10.32563 124.01209 1013 ft 134 kts 115°
2026-04-24 12:37 10.31897 124.01920 1178 ft 145 kts 144°
2026-04-24 12:37 10.30956 124.02314 1410 ft 147 kts 163°
2026-04-24 12:38 10.30057 124.02579 1969 ft 117 kts 150°
2026-04-24 12:38 10.29256 124.02897 2071 ft 133 kts 155°
2026-04-24 12:38 10.28343 124.03205 2224 ft 140 kts 158°
2026-04-24 12:39 10.25311 124.04062 2497 ft 158 kts 162°
2026-04-24 12:39 10.24250 124.04376 2497 ft 163 kts 161°
2026-04-24 12:39 10.23136 124.04689 2502 ft 165 kts 162°
2026-04-24 12:40 10.22037 124.04966 2530 ft 165 kts 161°
2026-04-24 12:40 10.20936 124.05290 2581 ft 162 kts 158°
2026-04-24 12:40 10.19907 124.05762 2521 ft 165 kts 147°
2026-04-24 12:40 10.18968 124.06417 2519 ft 162 kts 138°
2026-04-24 12:41 10.18243 124.07236 2650 ft 151 kts 122°
2026-04-24 12:41 10.17823 124.08184 2794 ft 145 kts 103°
2026-04-24 12:41 10.17669 124.09184 2950 ft 143 kts 98°
2026-04-24 12:41 10.17497 124.10168 3086 ft 142 kts 102°
2026-04-24 12:42 10.17280 124.11144 3207 ft 141 kts 101°
2026-04-24 12:42 10.17079 124.12123 3352 ft 142 kts 101°
2026-04-24 12:42 10.16875 124.13106 3508 ft 142 kts 101°
2026-04-24 12:42 10.16666 124.14080 3667 ft 141 kts 101°
2026-04-24 12:43 10.16462 124.15053 3833 ft 140 kts 101°
2026-04-24 12:43 10.16261 124.16021 3998 ft 140 kts 101°
2026-04-24 12:43 10.16054 124.16986 4166 ft 140 kts 100°
2026-04-24 12:43 10.15877 124.17958 4337 ft 141 kts 99°
2026-04-24 12:44 10.15711 124.18934 4502 ft 140 kts 99°
2026-04-24 12:44 10.15610 124.19577 4614 ft 139 kts 99°
2026-04-24 12:44 10.15408 124.20866 4837 ft 138 kts 98°
2026-04-24 12:44 10.15257 124.21838 5002 ft 141 kts 98°
2026-04-24 12:45 10.15102 124.22814 5164 ft 139 kts 98°
2026-04-24 12:45 10.14950 124.23772 5331 ft 138 kts 98°
2026-04-24 12:45 10.14850 124.24408 5439 ft 138 kts 98°
2026-04-24 12:45 10.14701 124.25373 5611 ft 140 kts 98°
2026-04-24 12:46 10.14544 124.26351 5782 ft 141 kts 98°
2026-04-24 12:46 10.14389 124.27332 5949 ft 141 kts 98°
2026-04-24 12:46 10.14234 124.28308 6119 ft 139 kts 98°
2026-04-24 12:46 10.14084 124.29275 6289 ft 139 kts 98°
2026-04-24 12:47 10.13876 124.30577 6506 ft 141 kts 99°
2026-04-24 12:47 10.13774 124.31233 6610 ft 143 kts 98°
2026-04-24 12:47 10.13615 124.32233 6752 ft 145 kts 98°
2026-04-24 12:47 10.13455 124.33250 6872 ft 147 kts 98°
2026-04-24 12:48 10.13289 124.34282 6994 ft 149 kts 98°
2026-04-24 12:48 10.13125 124.35321 7110 ft 150 kts 99°
2026-04-24 12:48 10.12961 124.36362 7230 ft 149 kts 98°
2026-04-24 12:48 10.12797 124.37410 7346 ft 151 kts 98°
2026-04-24 12:49 10.12628 124.38463 7469 ft 152 kts 99°
2026-04-24 12:49 10.12457 124.39544 7484 ft 158 kts 99°
2026-04-24 12:49 10.12286 124.40660 7490 ft 162 kts 98°
2026-04-24 12:49 10.12109 124.41795 7495 ft 164 kts 98°
2026-04-24 12:50 10.11927 124.42943 7493 ft 166 kts 98°
2026-04-24 12:50 10.11742 124.44102 7492 ft 167 kts 98°
2026-04-24 12:50 10.11556 124.45271 7493 ft 168 kts 98°
2026-04-24 12:50 10.11369 124.46444 7493 ft 168 kts 98°
2026-04-24 12:51 10.11185 124.47611 7488 ft 168 kts 98°
2026-04-24 12:51 10.11000 124.48782 7491 ft 169 kts 99°
2026-04-24 12:51 10.10813 124.49959 7491 ft 169 kts 98°
2026-04-24 12:51 10.10626 124.51141 7492 ft 169 kts 99°
2026-04-24 12:52 10.10439 124.52320 7493 ft 170 kts 99°
2026-04-24 12:52 10.10250 124.53508 7490 ft 171 kts 98°
2026-04-24 12:52 10.10062 124.54703 7484 ft 171 kts 98°
2026-04-24 12:52 10.09874 124.55879 7487 ft 171 kts 98°
2026-04-24 12:53 10.09683 124.57071 7489 ft 171 kts 98°
2026-04-24 12:53 10.09496 124.58264 7489 ft 171 kts 98°
2026-04-24 12:53 10.09306 124.59458 7490 ft 171 kts 99°
2026-04-24 12:53 10.09117 124.60651 7490 ft 171 kts 98°
2026-04-24 12:54 10.08927 124.61842 7491 ft 171 kts 99°
2026-04-24 12:54 10.08738 124.63033 7490 ft 171 kts 99°
2026-04-24 12:54 10.08548 124.64226 7488 ft 171 kts 99°
2026-04-24 12:54 10.08359 124.65417 7489 ft 171 kts 98°
2026-04-24 12:55 10.08169 124.66609 7490 ft 171 kts 99°
2026-04-24 12:55 10.07979 124.67802 7490 ft 171 kts 98°
2026-04-24 12:55 10.07790 124.68995 7490 ft 171 kts 98°
2026-04-24 12:55 10.07600 124.70187 7488 ft 171 kts 99°
2026-04-24 12:56 10.07410 124.71382 7493 ft 172 kts 99°
2026-04-24 12:56 10.07220 124.72578 7494 ft 172 kts 99°
2026-04-24 12:56 10.07029 124.73774 7497 ft 172 kts 99°
2026-04-24 12:56 10.06838 124.74972 7494 ft 172 kts 99°
2026-04-24 12:57 10.06647 124.76166 7493 ft 171 kts 99°
2026-04-24 12:57 10.06457 124.77358 7496 ft 171 kts 99°
2026-04-24 12:57 10.06269 124.78547 7494 ft 171 kts 99°
2026-04-24 12:57 10.06082 124.79718 7494 ft 171 kts 99°
2026-04-24 12:58 10.05892 124.80909 7493 ft 171 kts 99°
2026-04-24 12:58 10.05701 124.82101 7493 ft 171 kts 99°
2026-04-24 12:58 10.05512 124.83290 7491 ft 171 kts 99°
2026-04-24 12:58 10.05323 124.84474 7490 ft 170 kts 98°
2026-04-24 12:59 10.05134 124.85661 7491 ft 170 kts 99°
2026-04-24 12:59 10.04945 124.86843 7487 ft 170 kts 99°
2026-04-24 12:59 10.04755 124.88027 7488 ft 170 kts 98°
2026-04-24 12:59 10.04567 124.89209 7489 ft 170 kts 98°
2026-04-24 13:00 10.04377 124.90392 7490 ft 170 kts 98°
2026-04-24 13:00 10.04189 124.91577 7489 ft 170 kts 98°
2026-04-24 13:00 10.03999 124.92762 7487 ft 170 kts 98°
2026-04-24 13:00 10.03809 124.93950 7489 ft 171 kts 98°
2026-04-24 13:01 10.03619 124.95141 7489 ft 171 kts 98°
2026-04-24 13:01 10.03429 124.96328 7490 ft 170 kts 99°
2026-04-24 13:01 10.03239 124.97513 7489 ft 170 kts 99°
2026-04-24 13:01 10.03050 124.98699 7484 ft 170 kts 99°
2026-04-24 13:02 10.02861 124.99886 7487 ft 171 kts 99°
2026-04-24 13:02 10.02669 125.01075 7490 ft 170 kts 99°
2026-04-24 13:02 10.02478 125.02261 7493 ft 171 kts 98°
2026-04-24 13:02 10.02289 125.03454 7489 ft 171 kts 98°
2026-04-24 13:03 10.02099 125.04642 7488 ft 170 kts 98°
2026-04-24 13:03 10.01909 125.05826 7493 ft 170 kts 99°
2026-04-24 13:03 10.01718 125.07013 7495 ft 170 kts 99°
2026-04-24 13:03 10.01528 125.08194 7495 ft 170 kts 98°
2026-04-24 13:04 10.01339 125.09369 7496 ft 168 kts 98°
2026-04-24 13:04 10.01152 125.10544 7495 ft 169 kts 98°
2026-04-24 13:04 10.00963 125.11721 7493 ft 169 kts 98°
2026-04-24 13:04 10.00776 125.12884 7496 ft 169 kts 98°
2026-04-24 13:05 10.00587 125.14060 7493 ft 169 kts 98°
2026-04-24 13:05 10.00399 125.15236 7498 ft 169 kts 98°
2026-04-24 13:05 10.00210 125.16409 7499 ft 169 kts 98°
2026-04-24 13:05 10.00022 125.17584 7500 ft 169 kts 99°
2026-04-24 13:06 9.99832 125.18766 7500 ft 170 kts 99°
2026-04-24 13:06 9.99641 125.19948 7501 ft 170 kts 98°
2026-04-24 13:06 9.99451 125.21126 7502 ft 169 kts 98°
2026-04-24 13:06 9.99264 125.22300 7492 ft 169 kts 98°
2026-04-24 13:07 9.99078 125.23473 7499 ft 168 kts 99°
2026-04-24 13:07 9.98886 125.24648 7498 ft 169 kts 98°
2026-04-24 13:07 9.98697 125.25829 7501 ft 170 kts 99°
2026-04-24 13:07 9.98505 125.27011 7501 ft 170 kts 98°
2026-04-24 13:08 9.98315 125.28195 7501 ft 170 kts 98°
2026-04-24 13:08 9.98125 125.29381 7500 ft 170 kts 98°
2026-04-24 13:08 9.97936 125.30552 7502 ft 171 kts 98°
2026-04-24 13:09 9.97552 125.32929 7502 ft 171 kts 98°
2026-04-24 13:09 9.97361 125.34116 7500 ft 170 kts 98°
2026-04-24 13:09 9.97170 125.35305 7505 ft 171 kts 98°
2026-04-24 13:09 9.96978 125.36492 7505 ft 171 kts 98°
2026-04-24 13:10 9.96787 125.37682 7467 ft 172 kts 99°
2026-04-24 13:10 9.96591 125.38893 7373 ft 175 kts 99°
2026-04-24 13:10 9.96394 125.40111 7282 ft 175 kts 99°
2026-04-24 13:10 9.96198 125.41338 7188 ft 176 kts 98°
2026-04-24 13:11 9.96001 125.42565 7095 ft 176 kts 98°
2026-04-24 13:11 9.95803 125.43790 7002 ft 177 kts 99°
2026-04-24 13:11 9.95603 125.45020 6887 ft 176 kts 99°
2026-04-24 13:11 9.95407 125.46236 6773 ft 175 kts 98°
2026-04-24 13:12 9.95211 125.47452 6655 ft 174 kts 99°
2026-04-24 13:12 9.95015 125.48662 6537 ft 173 kts 99°
2026-04-24 13:12 9.94824 125.49849 6424 ft 173 kts 99°
2026-04-24 13:12 9.94629 125.51045 6313 ft 171 kts 98°
2026-04-24 13:13 9.94437 125.52237 6193 ft 170 kts 98°
2026-04-24 13:13 9.94247 125.53412 6069 ft 169 kts 98°
2026-04-24 13:13 9.94057 125.54591 5947 ft 169 kts 98°
2026-04-24 13:13 9.93867 125.55769 5822 ft 170 kts 98°
2026-04-24 13:14 9.93675 125.56943 5703 ft 168 kts 98°
2026-04-24 13:14 9.93486 125.58115 5582 ft 168 kts 98°
2026-04-24 13:14 9.93297 125.59281 5460 ft 167 kts 98°
2026-04-24 13:14 9.93109 125.60442 5339 ft 167 kts 98°
2026-04-24 13:15 9.92921 125.61605 5217 ft 167 kts 98°
2026-04-24 13:15 9.92732 125.62767 5100 ft 167 kts 99°
2026-04-24 13:15 9.92546 125.63926 4977 ft 166 kts 98°
2026-04-24 13:15 9.92361 125.65068 4857 ft 163 kts 98°
2026-04-24 13:16 9.92178 125.66200 4743 ft 163 kts 98°
2026-04-24 13:16 9.91994 125.67336 4626 ft 165 kts 98°
2026-04-24 13:16 9.91807 125.68485 4502 ft 166 kts 98°
2026-04-24 13:16 9.91620 125.69636 4380 ft 166 kts 98°
2026-04-24 13:17 9.91434 125.70781 4258 ft 164 kts 98°
2026-04-24 13:17 9.91248 125.71923 4136 ft 164 kts 98°
2026-04-24 13:17 9.91064 125.73059 4012 ft 163 kts 98°
2026-04-24 13:17 9.90880 125.74193 3893 ft 164 kts 99°
2026-04-24 13:18 9.90695 125.75335 3772 ft 164 kts 98°
2026-04-24 13:18 9.90509 125.76475 3656 ft 163 kts 98°
2026-04-24 13:18 9.90325 125.77608 3534 ft 162 kts 98°
2026-04-24 13:18 9.90143 125.78736 3413 ft 162 kts 98°
2026-04-24 13:19 9.89961 125.79863 3294 ft 162 kts 98°
2026-04-24 13:19 9.89774 125.80988 3175 ft 161 kts 98°
2026-04-24 13:19 9.89596 125.82101 3054 ft 160 kts 98°
2026-04-24 13:19 9.89416 125.83216 2932 ft 160 kts 97°
2026-04-24 13:20 9.89237 125.84306 2811 ft 158 kts 97°
2026-04-24 13:20 9.89057 125.85407 2691 ft 158 kts 98°
2026-04-24 13:20 9.88878 125.86511 2570 ft 158 kts 97°
2026-04-24 13:20 9.88687 125.87599 2500 ft 154 kts 98°
2026-04-24 13:21 9.88516 125.88660 2464 ft 150 kts 95°
2026-04-24 13:21 9.88397 125.89708 2411 ft 150 kts 95°
2026-04-24 13:21 9.88242 125.90758 2293 ft 151 kts 97°
2026-04-24 13:21 9.88107 125.91802 2224 ft 147 kts 94°
2026-04-24 13:22 9.88009 125.92834 2140 ft 146 kts 93°
2026-04-24 13:22 9.87907 125.93849 2067 ft 144 kts 95°
2026-04-24 13:22 9.87827 125.94845 1974 ft 140 kts 92°
2026-04-24 13:22 9.87763 125.95778 1927 ft 126 kts 92°
2026-04-24 13:23 9.87695 125.96648 1822 ft 123 kts 95°
2026-04-24 13:23 9.87574 125.97491 1725 ft 119 kts 101°
2026-04-24 13:23 9.87207 125.98254 1602 ft 125 kts 126°
2026-04-24 13:23 9.86495 125.98772 1507 ft 129 kts 155°
2026-04-24 13:24 9.85591 125.98876 1405 ft 127 kts 178°
2026-04-24 13:24 9.84768 125.98787 1346 ft 115 kts 186°
2026-04-24 13:24 9.83985 125.98587 1209 ft 117 kts 188°
2026-04-24 13:24 9.83219 125.98463 1154 ft 105 kts 170°
2026-04-24 13:25 9.82594 125.98772 1024 ft 101 kts 129°
2026-04-24 13:25 9.82320 125.99381 870 ft 95 kts 91°
2026-04-24 13:25 9.82523 125.99987 747 ft 90 kts 55°
2026-04-24 13:25 9.82974 126.00433 616 ft 91 kts 45°
2026-04-24 13:26 9.83444 126.00857 512 ft 88 kts 43°
2026-04-24 13:26 9.83945 126.01137 343 ft 78 kts 25°
2026-04-24 13:26 9.84459 126.01269 263 ft 76 kts 15°
2026-04-24 13:26 9.84985 126.01360 143 ft 76 kts 18°
2026-04-24 13:27 9.85502 126.01457 37 ft 71 kts 16°
2026-04-24 13:27 9.85897 126.01528 34 ft 40 kts
2026-04-24 13:27 9.86114 126.01565 38 ft 26 kts
2026-04-24 13:27 9.86219 126.01577 36 ft 8 kts 45°
2026-04-24 13:28 9.86172 126.01577 37 ft 13 kts 202°
2026-04-24 13:28 9.86056 126.01556 38 ft 20 kts 190°
2026-04-24 13:28 9.85907 126.01525 35 ft 24 kts 188°
2026-04-24 13:28 9.85749 126.01502 31 ft 17 kts 189°
2026-04-24 13:29 9.85711 126.01526 31 ft 3 kts 101°
2026-04-24 13:29 9.85689 126.01551 32 ft 8 kts 177°
2026-04-24 13:29 9.85646 126.01562 32 ft 2 kts 98°
2026-04-24 13:29 9.85645 126.01563 32 ft 0 kts 98°